Location: Peterborough
(44.3091°N, 78.3197°W)
Time: 07:32:09
(UTC-04:00)

Vanguard 3 - Pass Details

Date: 28 March 2023
Orbit: 507 x 3246 km, 33.4° (Epoch: 04 June)

Event Time Altitude Azimuth Distance (km) Brightness Sun altitude
Rises 09:34:46 0° 279° (W) 7,137 11.4 25.9°
Reaches altitude 10° 09:40:50 10° 270° (W) 5,908 11.1 26.9°
Maximum altitude 09:53:58 28° 222° (SW) 3,799 10.6 29.0°
Drops below altitude 10° 10:03:22 10° 169° (S) 4,135 11.4 30.5°
Sets 10:06:45 0° 157° (SSE) 4,740 11.8 31.1°
